This is the latest recevied weather packets stored in our database for station/object KK7ISX. If no packets are shown the sender has not sent any weather packets the latest 1 day(s).
| Time | Temp. | Humidity | Pressure | Rain* | Wind** | Luminosity | Snow |
|---|---|---|---|---|---|---|---|
| 1778031348 | 24.44° C | 30% | 1008.1 hPa | 0 mm | 2.24 m/s, 88° | 81 W/m² | - |
| 1778031044 | 24.44° C | 30% | 1007.9 hPa | 0 mm | 1.79 m/s, 9° | 90 W/m² | - |
| 1778030740 | 25° C | 30% | 1008 hPa | 0 mm | 1.79 m/s, 2° | 92 W/m² | - |
| 1778030437 | 25° C | 30% | 1008.1 hPa | 0 mm | 4.47 m/s, 352° | 106 W/m² | - |
| 1778030135 | 25° C | 30% | 1007.8 hPa | 0 mm | 2.68 m/s, 291° | 110 W/m² | - |
| 1778029831 | 25° C | 30% | 1008 hPa | 0 mm | 4.92 m/s, 34° | 120 W/m² | - |
| 1778029530 | 25° C | 30% | 1007.9 hPa | 0 mm | 3.13 m/s, 326° | 45 W/m² | - |
| 1778029226 | 25° C | 30% | 1007.8 hPa | 0 mm | 4.92 m/s, 5° | 145 W/m² | - |
| 1778028923 | 25° C | 29% | 1007.8 hPa | 0 mm | 3.13 m/s, 41° | 158 W/m² | - |
| 1778028619 | 25° C | 30% | 1007.8 hPa | 0 mm | 1.79 m/s, 353° | 170 W/m² | - |
| 1778028317 | 25° C | 29% | 1007.9 hPa | 0 mm | 5.81 m/s, 43° | 181 W/m² | - |
| 1778028013 | 25° C | 29% | 1007.7 hPa | 0 mm | 4.02 m/s, 17° | 191 W/m² | - |
| 1778027710 | 25° C | 29% | 1007.8 hPa | 0 mm | 4.47 m/s, 346° | 201 W/m² | - |
| 1778027406 | 25° C | 29% | 1007.9 hPa | 0 mm | 5.81 m/s, 0° | 212 W/m² | - |
| 1778027102 | 25.56° C | 28% | 1007.8 hPa | 0 mm | 5.36 m/s, 37° | 205 W/m² | - |
| 1778026797 | 25.56° C | 28% | 1007.9 hPa | 0 mm | 2.68 m/s, 325° | 233 W/m² | - |
| 1778026494 | 25.56° C | 29% | 1007.8 hPa | 0 mm | 1.79 m/s, 356° | 248 W/m² | - |
| 1778026192 | 25.56° C | 29% | 1007.8 hPa | 0 mm | 6.26 m/s, 333° | 256 W/m² | - |
| 1778025889 | 25° C | 28% | 1007.8 hPa | 0 mm | 6.26 m/s, 352° | 275 W/m² | - |
| 1778025586 | 25.56° C | 28% | 1007.8 hPa | 0 mm | 7.6 m/s, 12° | 286 W/m² | - |
| 1778025284 | 25° C | 29% | 1007.7 hPa | 0 mm | 5.36 m/s, 13° | 301 W/m² | - |
| 1778024981 | 25.56° C | 30% | 1007.9 hPa | 0 mm | 5.81 m/s, 21° | 313 W/m² | - |
| 1778024678 | 25.56° C | 30% | 1007.8 hPa | 0 mm | 4.92 m/s, 7° | 324 W/m² | - |
| 1778024375 | 25.56° C | 29% | 1007.9 hPa | 0 mm | 8.49 m/s, 327° | 344 W/m² | - |
| 1778024073 | 25° C | 31% | 1007.9 hPa | 0 mm | 5.36 m/s, 321° | 356 W/m² | - |
* Rain latest hour (hover to see other rain measurements)
** Current wind speed in m/s (hover to see current wind gust speed)